Location: Houhaj�rvi
(61.2833°N, 23.0000°E)
Time: 21:08:26
(UTC+00:00)

APEX - Pass Details

Date: 27 February 2020
Orbit: 330 x 1120 km, 69.9° (Epoch: 29 March)

Event Time Altitude Azimuth Distance (km) Brightness Sun altitude
Rises 19:43:15 0° 227° (SW) 3,245 7.4 -27.8°
Reaches altitude 10° 19:45:26 10° 229° (SW) 2,430 6.7 -28.0°
Maximum altitude 19:51:11 82° 317° (NW) 971 4.4 -28.5°
Drops below altitude 10° 19:58:08 10° 46° (NE) 2,906 6.9 -29.2°
Sets 20:00:57 0° 47° (NE) 3,919 7.6 -29.4°
